カタログに戻る

THORAD AGENA D DEB

運用中LEO
NORAD 4753·DEBRIS·🇺🇸 United States

打ち上げ Apr 8, 1970 から Vandenberg Space Force Base

Loading…

次のパス (今後24時間)

TLE

最新Source: Space-Track

元期: Sep 14, 2026, 07:33 UTC

1 04753U 70025DB  26257.31502547  .00000916  00000-0  85277-3 0  9990
2 04753 100.0009  34.2377 0007142  88.3590 271.8381 13.85086526815181

AllMySatでTHORAD AGENA D DEBをリアルタイム追跡

Download on the App Store